Details From LFMN - Nice/Cote d'Azur
To LIMJ - Genova Sestri
Flight Number -
Tags decoded
Created
Modified
Stats Distance 89 nm / 165 km
Max Altitude 0 ft / 0 m
Waypoints 5
Social Downloads 3
Likes 0
Share VATSIM

Download

Looking for another format? Having issues loading an existing format? Contact us
Advertisement - Login to hide

Notes

Requested: LFMN NIZ KEPPO ABN DORAV LIMJ Unmatched points: KEPPO

Route

LFMN NIZ ABN DORAV LIMJ

ID Type Via Altitude (ft/m) Position (lat/lon) Dist (leg/tot) Name
O LFMN APT - 0 / 0 43.65798 / 7.21536 - / 0 nm Nice/Cote d'Azur
NIZ VOR - 0 / 0 43.77064 / 7.25439 6 / 6 nm NICE COTE D AZUR VOR-DME
ABN NDB - 0 / 0 44.05583 / 8.22111 45 / 52 nm ALBENGA NDB
DORAV FIX - 0 / 0 44.32639 / 8.85222 31 / 83 nm
O LIMJ APT - 0 / 0 44.41196 / 8.84187 5 / 88 nm Genova Sestri

Altitude Profile

Advertisement - Login to hide

LFMN

Details ICAO LFMN (NCE)
Name Nice/Cote d'Azur
Region France
Timezone Unknown
Stats Elevation 12 ft / 4 m (AMSL)
Location 43.658400° 7.215780°
Runways 2
Magnetic Variation 2.160° E

METAR

LFMN 240230Z 35009KT 330V030 CAVOK 14/M01 Q1022 NOSIG

Decode

TAF

TAF LFMN 240200Z 2403/2509 34010KT CAVOK BECMG 2409/2411 18010KT BECMG 2416/2418 VRB05KT PROB30 TEMPO 2423/2506 07010KT 4000 BR BKN010 BECMG 2507/2509 09010KT

Decode

Departure Runways

ID Width Length Bearing (true/mag) Surface Threshold Overrun Markings Lighting
04L 148 ft / 45 m 9,032 ft / 2,753 m 44.83° / 42.67° ASPHALT 0 ft / 0 m 161 ft / 49 m PREC-APP CENTERLINE EDGE THRESHOLD REIL-OMNI
04R 148 ft / 45 m 9,705 ft / 2,958 m 44.85° / 42.69° ASPHALT 0 ft / 0 m 417 ft / 127 m PREC-APP CENTERLINE EDGE THRESHOLD REIL-OMNI
22L 148 ft / 45 m 9,705 ft / 2,958 m 224.87° / 222.71° ASPHALT 0 ft / 0 m 525 ft / 160 m PREC-APP CENTERLINE EDGE THRESHOLD REIL-OMNI
22R 148 ft / 45 m 9,032 ft / 2,753 m 224.84° / 222.68° ASPHALT 614 ft / 187 m 0 ft / 0 m PREC-APP CENTERLINE EDGE THRESHOLD REIL-OMNI

LIMJ

Details ICAO LIMJ (GOA)
Name Genova Cristoforo Colombo Airport
Region Italy
Timezone Unknown
Stats Elevation 13 ft / 4 m (AMSL)
Location 44.412000° 8.841800°
Runways 1
Magnetic Variation 2.532° E

METAR

LIMJ 240220Z 02007KT 340V050 CAVOK 16/01 Q1022

Decode

TAF

TAF LIMJ 232300Z 2400/2424 02008KT CAVOK

Decode

Destination Runways

ID Width Length Bearing (true/mag) Surface Threshold Overrun Markings Lighting
10 148 ft / 45 m 9,577 ft / 2,919 m 105.33° / 102.80° CONCRETE 0 ft / 0 m 0 ft / 0 m PREC-APP CENTERLINE EDGE THRESHOLD SALS REIL-OMNI
28 148 ft / 45 m 9,577 ft / 2,919 m 285.36° / 282.83° CONCRETE 522 ft / 159 m 0 ft / 0 m PREC-APP CENTERLINE EDGE THRESHOLD SALS REIL-OMNI

Approach Navaids

Runway Type Ident Frequency Range Bearing (true/mag) Slope Elevation
28 DME GSE 109.30 MHz 18 nm / 33 km - - 26 ft / 8 m (AMSL)
28 LOC-ILS GSE 109.30 MHz 18 nm / 33 km 285.40° / 282.87 ° - 9 ft / 3 m (AMSL)
28 GS GSE 109.30 MHz 10 nm / 19 km 285.40° / 282.87 ° 3.17° 26 ft / 8 m (AMSL)

Popular Alternatives